Regional Weather Roundup
Issued by NWS

Home | Current Version | Previous Version | Text Only | Print | Product List | Glossary Off
Versions: 1 2 3 4 5 6 7 8 9 10 11 12 13 14 15 16 17 18 19 20 21 22 23 24 25 26 27 28 29 30 31 32 33 34 35 36 37 38 39 40 41 42 43 44 45 46 47 48 49 50

000
ASUS43 KLMK 230902
RWRKY
KENTUCKY REGIONAL WEATHER ROUNDUP
NATIONAL WEATHER SERVICE LOUISVILLE KY
500 AM EDT TUE SEP 23 2014

NOTE "FAIR" INDICATES FEW OR NO CLOUDS BELOW 12,000 FEET
WITH NO SIGNIFICANT WEATHER AND/OR OBSTRUCTIONS TO VISIBILITY.

KYZ001>023-026-027-061>063-070>075-231000-
WESTERN AND SOUTH CENTRAL KENTUCKY

CITY           SKY/WX    TMP DP  RH WIND       PRES   REMARKS
PADUCAH        CLEAR     48  43  82 CALM      30.25S
HENDERSON      CLEAR     45  39  81 CALM      30.28R
OWENSBORO      CLEAR     48  45  90 CALM      30.28R
HOPKINSVILLE   CLEAR     49  45  85 NE5       30.25R
BOWLING GREEN  CLEAR    N/A N/A N/A E3        30.26F
GLASGOW        CLEAR     45  45 100 CALM      30.26S
$$

KYZ024-025-028>034-038-045-046-053-231000-
NORTH CENTRAL KENTUCKY

CITY           SKY/WX    TMP DP  RH WIND       PRES   REMARKS
LOUISVILLE/SDF CLEAR     52  46  80 CALM      30.28R
LOUISVILLE/LOU CLEAR     47  44  90 CALM      30.29R
FORT KNOX      CLEAR     48  44  86 NE3       30.26S
$$

KYZ035>037-039>044-047>052-055>060-089>105-231000-
NORTHEAST KENTUCKY

CITY           SKY/WX    TMP DP  RH WIND       PRES   REMARKS
LEXINGTON      CLEAR     48  41  76 E6        30.28R
COVINGTON      CLEAR     45  41  86 CALM      30.29R
FRANKFORT      CLEAR     43  41  93 CALM      30.27S
$$

KYZ054-064>069-076>088-106>120-231000-
SOUTHEAST KENTUCKY

CITY           SKY/WX    TMP DP  RH WIND       PRES   REMARKS
JACKSON        CLEAR     50  44  80 CALM      30.27R
LONDON         CLEAR     48  45  89 CALM      30.27R
SOMERSET       CLEAR     46  45  93 CALM      30.28R
MIDDLESBORO    FOG       47  47 100 CALM      30.26S VSB 1/4
MONTICELLO     SUNNY     43  42  96 CALM      30.28R
$$



USA.gov is the U.S. government's official web portal to all federal, state and local government web resources and services.